This is the latest recevied weather packets stored in our database for station/object WA1OUI. If no packets are shown the sender has not sent any weather packets the latest 10 day(s).
| Time | Temp. | Humidity | Pressure | Rain* | Wind** | Luminosity | Snow |
|---|---|---|---|---|---|---|---|
| 1777839091 | 13.33° C | 33% | 1007.5 hPa | 0 mm | - | 473 W/m² | - |
| 1777838787 | 12.78° C | 38% | 1007.3 hPa | 0 mm | - | 509 W/m² | - |
| 1777838484 | 12.78° C | 33% | 1007.6 hPa | 0 mm | - | 126 W/m² | - |
| 1777838181 | 13.33° C | 30% | 1007.4 hPa | 0 mm | - | 200 W/m² | - |
| 1777837878 | 12.22° C | 36% | 1007.2 hPa | 0 mm | - | 440 W/m² | - |
| 1777837575 | 12.22° C | 33% | 1007.1 hPa | 0 mm | - | 171 W/m² | - |
| 1777837270 | 12.22° C | 35% | 1007.5 hPa | 0 mm | - | 236 W/m² | - |
| 1777836967 | 11.67° C | 33% | 1007.3 hPa | 0 mm | - | 445 W/m² | - |
| 1777836662 | 11.67° C | 35% | 1007.4 hPa | 0 mm | - | 231 W/m² | - |
| 1777836358 | 11.67° C | 36% | 1007.3 hPa | 0 mm | - | 163 W/m² | - |
| 1777836054 | 12.22° C | 36% | 1007.2 hPa | 0 mm | - | 296 W/m² | - |
| 1777835751 | 12.78° C | 37% | 1007.1 hPa | 0 mm | - | 188 W/m² | - |
| 1777835448 | 12.78° C | 34% | 1007.3 hPa | 0 mm | - | 192 W/m² | - |
| 1777835145 | 13.33° C | 31% | 1007.5 hPa | 0 mm | - | 358 W/m² | - |
| 1777834842 | 12.78° C | 34% | 1007.3 hPa | 0 mm | - | 299 W/m² | - |
| 1777834538 | 12.78° C | 35% | 1007.2 hPa | 0 mm | - | 231 W/m² | - |
| 1777834238 | 12.78° C | 31% | 1007.3 hPa | 0 mm | - | 258 W/m² | - |
| 1777833934 | 13.33° C | 32% | 1007.2 hPa | 0 mm | - | 223 W/m² | - |
| 1777833631 | 12.78° C | 31% | 1007.5 hPa | 0 mm | - | 266 W/m² | - |
| 1777833328 | 13.33° C | 32% | 1007.2 hPa | 0 mm | - | 304 W/m² | - |
| 1777833025 | 13.33° C | 31% | 1007.5 hPa | 0 mm | - | 405 W/m² | - |
| 1777832723 | 13.33° C | 32% | 1007.3 hPa | 0 mm | - | 256 W/m² | - |
| 1777832421 | 12.78° C | 30% | 1007.5 hPa | 0 mm | - | 373 W/m² | - |
| 1777832118 | 13.33° C | 31% | 1007.3 hPa | 0 mm | - | 296 W/m² | - |
| 1777831814 | 12.78° C | 33% | 1007.3 hPa | 0 mm | - | 818 W/m² | - |
* Rain latest hour (hover to see other rain measurements)
** Current wind speed in m/s (hover to see current wind gust speed)